| time (UTC) | temp F | wind direction | speed knots | gust knots | rain 1hr in | rain 24hr in | rain mn in | humidity % | barometer mb |
| 20260506044910 | 56 | 150 | 4.3 | 7.8 | 0.00 | 0.00 | 0.00 | 91 | 1013.1 |
| 20260506044410 | 56 | 209 | 4.3 | 7.8 | 0.00 | 0.00 | 0.00 | 91 | 1013.1 |
| 20260506043907 | 56 | 157 | 4.3 | 13.0 | 0.00 | 0.00 | 0.00 | 91 | 1013.2 |
| 20260506043407 | 56 | 127 | 4.3 | 13.0 | 0.00 | 0.00 | 0.00 | 91 | 1013.1 |
| 20260506042908 | 56 | 160 | 4.3 | 9.6 | 0.00 | 0.00 | 0.00 | 90 | 1013.0 |
| 20260506042407 | 56 | 198 | 4.3 | 9.6 | 0.00 | 0.00 | 0.00 | 90 | 1013.1 |
| 20260506041907 | 56 | 169 | 4.3 | 9.6 | 0.00 | 0.00 | 0.00 | 90 | 1013.1 |
| 20260506041409 | 56 | 84 | 4.3 | 10.4 | 0.00 | 0.00 | 0.00 | 90 | 1013.0 |
| 20260506040906 | 56 | 165 | 4.3 | 11.3 | 0.00 | 0.00 | 0.00 | 89 | 1013.1 |
| 20260506040406 | 57 | 216 | 4.3 | 14.8 | 0.00 | 0.00 | 0.00 | 89 | 1013.1 |
| 20260506035907 | 57 | 238 | 5.2 | 14.8 | 0.00 | 0.00 | 0.00 | 89 | 1013.1 |
| 20260506035407 | 57 | 298 | 5.2 | 13.0 | 0.00 | 0.00 | 0.00 | 89 | 1013.0 |
| 20260506034906 | 57 | 231 | 5.2 | 13.0 | 0.00 | 0.00 | 0.00 | 89 | 1013.0 |
| 20260506034405 | 57 | 177 | 4.3 | 10.4 | 0.00 | 0.00 | 0.00 | 89 | 1012.9 |
| 20260506033904 | 57 | 194 | 5.2 | 10.4 | 0.00 | 0.00 | 0.00 | 88 | 1012.9 |
| 20260506033403 | 57 | 157 | 5.2 | 13.9 | 0.00 | 0.00 | 0.00 | 88 | 1012.8 |
| 20260506032903 | 57 | 290 | 5.2 | 13.9 | 0.00 | 0.00 | 0.00 | 88 | 1012.8 |
| 20260506032405 | 57 | 163 | 5.2 | 12.2 | 0.00 | 0.00 | 0.00 | 88 | 1012.7 |
| 20260506031901 | 57 | 185 | 5.2 | 12.2 | 0.00 | 0.00 | 0.00 | 88 | 1012.8 |
| 20260506031403 | 57 | 226 | 5.2 | 11.3 | 0.00 | 0.00 | 0.00 | 88 | 1012.8 |
| 20260506030901 | 57 | 248 | 4.3 | 13.0 | 0.00 | 0.00 | 0.00 | 88 | 1012.7 |
| 20260506030401 | 57 | 234 | 4.3 | 13.0 | 0.00 | 0.00 | 0.00 | 87 | 1012.6 |
| 20260506025859 | 57 | 211 | 5.2 | 14.8 | 0.00 | 0.00 | 0.00 | 87 | 1012.6 |
| 20260506025358 | 57 | 192 | 4.3 | 14.8 | 0.00 | 0.00 | 0.00 | 87 | 1012.5 |
| 20260506024857 | 58 | 134 | 4.3 | 10.4 | 0.00 | 0.00 | 0.00 | 87 | 1012.6 |
| 20260506024359 | 58 | 176 | 5.2 | 13.9 | 0.00 | 0.00 | 0.00 | 87 | 1012.6 |
| 20260506023857 | 58 | 164 | 4.3 | 13.9 | 0.00 | 0.00 | 0.00 | 87 | 1012.6 |
| 20260506023355 | 58 | 200 | 5.2 | 13.0 | 0.00 | 0.00 | 0.00 | 86 | 1012.7 |
| 20260506022856 | 58 | 150 | 5.2 | 15.6 | 0.00 | 0.00 | 0.00 | 86 | 1012.7 |
| 20260506022355 | 58 | 173 | 5.2 | 15.6 | 0.00 | 0.00 | 0.00 | 86 | 1012.7 |
| 20260506021855 | 58 | 219 | 5.2 | 12.2 | 0.00 | 0.00 | 0.00 | 85 | 1012.9 |
| 20260506021354 | 58 | 162 | 6.1 | 12.2 | 0.00 | 0.00 | 0.00 | 85 | 1012.9 |
| 20260506020853 | 58 | 206 | 5.2 | 14.8 | 0.00 | 0.00 | 0.00 | 85 | 1012.8 |
| 20260506020352 | 58 | 126 | 5.2 | 14.8 | 0.00 | 0.00 | 0.00 | 85 | 1012.8 |
| 20260506015854 | 58 | 190 | 4.3 | 10.4 | 0.00 | 0.00 | 0.00 | 85 | 1012.8 |
| 20260506015352 | 58 | 355 | 3.5 | 10.4 | 0.00 | 0.00 | 0.00 | 85 | 1012.9 |
| 20260506014851 | 58 | 146 | 4.3 | 11.3 | 0.00 | 0.00 | 0.00 | 84 | 1012.9 |
| 20260506014352 | 58 | 167 | 5.2 | 11.3 | 0.00 | 0.00 | 0.00 | 84 | 1012.8 |
| 20260506013851 | 58 | 175 | 5.2 | 13.0 | 0.00 | 0.00 | 0.00 | 84 | 1012.7 |
| 20260506013349 | 58 | 143 | 5.2 | 13.0 | 0.00 | 0.00 | 0.00 | 84 | 1012.7 |
| 20260506012848 | 58 | 161 | 4.3 | 11.3 | 0.00 | 0.00 | 0.00 | 84 | 1012.6 |
| 20260506012349 | 57 | 180 | 4.3 | 10.4 | 0.00 | 0.00 | 0.00 | 84 | 1012.7 |
| 20260506011846 | 57 | 202 | 4.3 | 10.4 | 0.00 | 0.00 | 0.00 | 84 | 1012.7 |
| 20260506011345 | 57 | 189 | 4.3 | 12.2 | 0.00 | 0.00 | 0.00 | 85 | 1012.6 |
| 20260506010845 | 57 | 172 | 4.3 | 12.2 | 0.00 | 0.00 | 0.00 | 84 | 1012.5 |
| 20260506010345 | 57 | 130 | 4.3 | 12.2 | 0.00 | 0.00 | 0.00 | 84 | 1012.4 |
| 20260506005847 | 57 | 172 | 4.3 | 10.4 | 0.00 | 0.00 | 0.00 | 84 | 1012.4 |
| 20260506005344 | 57 | 154 | 4.3 | 8.7 | 0.00 | 0.00 | 0.00 | 83 | 1012.2 |
| 20260506004843 | 57 | 184 | 5.2 | 13.0 | 0.00 | 0.00 | 0.00 | 83 | 1012.0 |
| 20260506004341 | 57 | 190 | 5.2 | 13.0 | 0.00 | 0.00 | 0.00 | 82 | 1011.9 |
| 20260506003842 | 57 | 150 | 6.1 | 12.2 | 0.00 | 0.00 | 0.00 | 81 | 1011.7 |
| 20260506003342 | 57 | 144 | 6.1 | 11.3 | 0.00 | 0.00 | 0.00 | 81 | 1011.5 |
| 20260506002840 | 57 | 180 | 6.1 | 12.2 | 0.00 | 0.00 | 0.00 | 80 | 1011.5 |
| 20260506002340 | 57 | 172 | 5.2 | 12.2 | 0.00 | 0.00 | 0.00 | 80 | 1011.5 |
| 20260506001842 | 57 | 164 | 5.2 | 13.0 | 0.00 | 0.00 | 0.00 | 79 | 1011.5 |
| 20260506001139 | 57 | 171 | 5.2 | 10.4 | 0.00 | 0.00 | 0.00 | 79 | 1011.5 |
| 20260506000639 | 57 | 165 | 5.2 | 11.3 | 0.00 | 0.00 | 0.00 | 79 | 1011.5 |
| 20260506000139 | 57 | 109 | 5.2 | 13.0 | 0.00 | 0.00 | 0.00 | 79 | 1011.5 |
| 20260505235637 | 58 | 207 | 5.2 | 13.0 | 0.00 | 0.00 | 0.00 | 78 | 1011.4 |
| 20260505235135 | 58 | 187 | 6.1 | 12.2 | 0.00 | 0.00 | 0.00 | 78 | 1011.3 |
| 20260505234636 | 58 | 217 | 5.2 | 13.0 | 0.00 | 0.00 | 0.00 | 77 | 1011.4 |
| 20260505234135 | 58 | 172 | 5.2 | 13.0 | 0.00 | 0.00 | 0.00 | 77 | 1011.3 |
| 20260505233637 | 58 | 205 | 5.2 | 13.9 | 0.00 | 0.00 | 0.00 | 76 | 1011.2 |
| 20260505233107 | 58 | 169 | 5.2 | 14.8 | 0.00 | 0.00 | 0.00 | 76 | 1011.1 |
| 20260505232607 | 58 | 187 | 5.2 | 13.9 | 0.00 | 0.00 | 0.00 | 76 | 1011.1 |
| 20260505232106 | 58 | 211 | 5.2 | 9.6 | 0.00 | 0.00 | 0.00 | 77 | 1011.1 |
| 20260505231605 | 58 | 254 | 5.2 | 11.3 | 0.00 | 0.00 | 0.00 | 77 | 1011.0 |
| 20260505231105 | 58 | 143 | 5.2 | 12.2 | 0.00 | 0.00 | 0.00 | 77 | 1011.1 |
| 20260505230606 | 58 | 153 | 5.2 | 12.2 | 0.00 | 0.00 | 0.00 | 78 | 1011.2 |
| 20260505230106 | 58 | 151 | 5.2 | 13.9 | 0.00 | 0.00 | 0.00 | 79 | 1011.0 |
| 20260505225608 | 58 | 273 | 6.1 | 13.9 | 0.00 | 0.00 | 0.00 | 79 | 1010.9 |
| 20260505225103 | 58 | 157 | 6.1 | 13.0 | 0.00 | 0.00 | 0.00 | 80 | 1010.8 |
| 20260505224601 | 58 | 163 | 6.1 | 13.0 | 0.00 | 0.00 | 0.00 | 80 | 1010.8 |
| 20260505224103 | 58 | 165 | 5.2 | 20.0 | 0.00 | 0.00 | 0.00 | 80 | 1010.8 |
| 20260505223602 | 59 | 158 | 5.2 | 20.0 | 0.00 | 0.00 | 0.00 | 80 | 1010.8 |
| 20260505223103 | 59 | 161 | 5.2 | 13.9 | 0.00 | 0.00 | 0.00 | 81 | 1010.8 |
| 20260505222602 | 59 | 167 | 5.2 | 10.4 | 0.00 | 0.00 | 0.00 | 81 | 1010.7 |
| 20260505222101 | 59 | 219 | 6.1 | 15.6 | 0.00 | 0.00 | 0.00 | 80 | 1010.7 |
| 20260505221601 | 59 | 169 | 6.1 | 15.6 | 0.00 | 0.00 | 0.00 | 80 | 1010.5 |
| 20260505221059 | 59 | 282 | 6.1 | 15.6 | 0.00 | 0.00 | 0.00 | 80 | 1010.6 |
| 20260505220557 | 59 | 166 | 6.1 | 13.9 | 0.00 | 0.00 | 0.00 | 80 | 1010.6 |
| 20260505220058 | 60 | 192 | 6.1 | 13.9 | 0.00 | 0.00 | 0.00 | 80 | 1010.5 |
| 20260505215556 | 60 | 163 | 6.1 | 13.9 | 0.00 | 0.00 | 0.00 | 79 | 1010.6 |
| 20260505215054 | 60 | 186 | 6.1 | 13.9 | 0.00 | 0.00 | 0.00 | 79 | 1010.7 |
| 20260505214553 | 60 | 164 | 5.2 | 12.2 | 0.00 | 0.00 | 0.00 | 79 | 1010.6 |
| 20260505214054 | 60 | 181 | 6.1 | 16.5 | 0.00 | 0.00 | 0.00 | 79 | 1010.6 |
| 20260505213552 | 60 | 149 | 6.1 | 16.5 | 0.00 | 0.00 | 0.00 | 79 | 1010.7 |
| 20260505213051 | 60 | 217 | 6.1 | 13.0 | 0.00 | 0.00 | 0.00 | 79 | 1010.7 |
| 20260505212551 | 60 | 159 | 5.2 | 14.8 | 0.00 | 0.00 | 0.00 | 79 | 1010.6 |
| 20260505212050 | 60 | 212 | 6.1 | 14.8 | 0.00 | 0.00 | 0.00 | 80 | 1010.6 |
| 20260505211551 | 60 | 183 | 7.0 | 15.6 | 0.00 | 0.00 | 0.00 | 80 | 1010.4 |
| 20260505211050 | 60 | 197 | 6.1 | 15.6 | 0.00 | 0.00 | 0.00 | 79 | 1010.5 |
| 20260505210547 | 60 | 148 | 6.1 | 13.0 | 0.00 | 0.00 | 0.00 | 79 | 1010.4 |
| 20260505210049 | 60 | 184 | 6.1 | 13.0 | 0.00 | 0.00 | 0.00 | 79 | 1010.5 |
| 20260505205546 | 60 | 340 | 6.1 | 12.2 | 0.00 | 0.00 | 0.00 | 79 | 1010.4 |
| 20260505205048 | 60 | 167 | 7.0 | 18.2 | 0.00 | 0.00 | 0.00 | 79 | 1010.3 |
| 20260505204547 | 60 | 149 | 7.0 | 18.2 | 0.00 | 0.00 | 0.00 | 79 | 1010.3 |
| 20260505204045 | 60 | 152 | 6.1 | 13.0 | 0.00 | 0.00 | 0.00 | 79 | 1010.3 |
| 20260505203546 | 60 | 161 | 7.0 | 14.8 | 0.00 | 0.00 | 0.00 | 79 | 1010.4 |
| 20260505203045 | 60 | 188 | 7.8 | 17.4 | 0.00 | 0.00 | 0.00 | 79 | 1010.3 |
| 20260505202546 | 60 | 187 | 7.0 | 17.4 | 0.00 | 0.00 | 0.00 | 79 | 1010.4 |
| 20260505202047 | 60 | 144 | 7.0 | 13.9 | 0.00 | 0.00 | 0.00 | 79 | 1010.4 |
| 20260505201542 | 60 | 184 | 7.0 | 13.9 | 0.00 | 0.00 | 0.00 | 79 | 1010.4 |
| 20260505201040 | 60 | 165 | 6.1 | 13.0 | 0.00 | 0.00 | 0.00 | 79 | 1010.4 |
| 20260505200544 | 60 | 202 | 7.0 | 16.5 | 0.00 | 0.00 | 0.00 | 78 | 1010.5 |
| 20260505200040 | 60 | 202 | 7.0 | 16.5 | 0.00 | 0.00 | 0.00 | 78 | 1010.5 |
| 20260505195540 | 61 | 144 | 7.0 | 13.9 | 0.00 | 0.00 | 0.00 | 77 | 1010.6 |
| 20260505195039 | 61 | 212 | 6.1 | 15.6 | 0.00 | 0.00 | 0.00 | 77 | 1010.5 |
| 20260505194538 | 61 | 143 | 6.1 | 15.6 | 0.00 | 0.00 | 0.00 | 77 | 1010.6 |
| 20260505194040 | 61 | 150 | 5.2 | 12.2 | 0.00 | 0.00 | 0.00 | 77 | 1010.5 |
| 20260505193537 | 62 | 164 | 5.2 | 10.4 | 0.00 | 0.00 | 0.00 | 77 | 1010.6 |
| 20260505193038 | 61 | 163 | 6.1 | 16.5 | 0.00 | 0.00 | 0.00 | 78 | 1010.6 |
| 20260505192535 | 61 | 161 | 7.0 | 16.5 | 0.00 | 0.00 | 0.00 | 78 | 1010.7 |
| 20260505192036 | 61 | 179 | 6.1 | 13.9 | 0.00 | 0.00 | 0.00 | 77 | 1010.8 |
| 20260505191534 | 61 | 215 | 6.1 | 12.2 | 0.00 | 0.00 | 0.00 | 77 | 1010.7 |
| 20260505191034 | 62 | 173 | 5.2 | 10.4 | 0.00 | 0.00 | 0.00 | 76 | 1010.7 |
| 20260505190533 | 62 | 169 | 6.1 | 12.2 | 0.00 | 0.00 | 0.00 | 77 | 1010.7 |
| 20260505190033 | 61 | 167 | 6.1 | 12.2 | 0.00 | 0.00 | 0.00 | 76 | 1010.7 |
| 20260505185533 | 62 | 149 | 6.1 | 18.2 | 0.00 | 0.00 | 0.00 | 77 | 1010.8 |
| 20260505185034 | 62 | 167 | 5.2 | 18.2 | 0.00 | 0.00 | 0.00 | 76 | 1010.7 |
| 20260505184532 | 62 | 190 | 5.2 | 10.4 | 0.00 | 0.00 | 0.00 | 75 | 1010.7 |
| 20260505184030 | 62 | 275 | 5.2 | 14.8 | 0.00 | 0.00 | 0.00 | 76 | 1010.7 |
| 20260505183530 | 62 | 194 | 5.2 | 14.8 | 0.00 | 0.00 | 0.00 | 75 | 1010.7 |
| 20260505183029 | 62 | 264 | 6.1 | 13.0 | 0.00 | 0.00 | 0.00 | 76 | 1010.8 |
| 20260505182530 | 62 | 165 | 6.1 | 13.0 | 0.00 | 0.00 | 0.00 | 76 | 1010.8 |
| 20260505182027 | 62 | 171 | 6.1 | 13.0 | 0.00 | 0.00 | 0.00 | 77 | 1010.8 |
| 20260505181527 | 62 | 148 | 6.1 | 12.2 | 0.00 | 0.00 | 0.00 | 77 | 1010.9 |
| 20260505181026 | 62 | 199 | 6.1 | 12.2 | 0.00 | 0.00 | 0.00 | 76 | 1010.9 |
| 20260505180525 | 62 | 171 | 6.1 | 11.3 | 0.00 | 0.00 | 0.00 | 77 | 1011.0 |
| 20260505180025 | 62 | 168 | 6.1 | 13.9 | 0.00 | 0.00 | 0.00 | 77 | 1011.0 |
| 20260505175523 | 62 | 159 | 6.1 | 13.9 | 0.00 | 0.00 | 0.00 | 75 | 1011.0 |
| 20260505175026 | 62 | 196 | 7.0 | 13.9 | 0.00 | 0.00 | 0.00 | 77 | 1011.1 |
| 20260505174523 | 62 | 144 | 6.1 | 13.9 | 0.00 | 0.00 | 0.00 | 76 | 1011.1 |
| 20260505174023 | 62 | 154 | 6.1 | 10.4 | 0.00 | 0.00 | 0.00 | 75 | 1011.2 |
| 20260505173522 | 62 | 153 | 6.1 | 12.2 | 0.00 | 0.00 | 0.00 | 77 | 1011.3 |
| 20260505173022 | 62 | 155 | 6.1 | 12.2 | 0.00 | 0.00 | 0.00 | 77 | 1011.4 |
| 20260505172520 | 61 | 236 | 6.1 | 13.9 | 0.00 | 0.00 | 0.00 | 77 | 1011.4 |
| 20260505172019 | 61 | 153 | 6.1 | 13.9 | 0.00 | 0.00 | 0.00 | 77 | 1011.4 |
| 20260505171520 | 61 | 167 | 7.0 | 13.0 | 0.00 | 0.00 | 0.00 | 77 | 1011.5 |
| 20260505171019 | 61 | 162 | 7.0 | 13.0 | 0.00 | 0.00 | 0.00 | 77 | 1011.4 |
| 20260505170519 | 62 | 241 | 6.1 | 14.8 | 0.00 | 0.00 | 0.00 | 77 | 1011.5 |
| 20260505170017 | 62 | 168 | 6.1 | 14.8 | 0.00 | 0.00 | 0.00 | 76 | 1011.3 |
| 20260505165516 | 62 | 166 | 6.1 | 12.2 | 0.00 | 0.00 | 0.00 | 77 | 1011.4 |
| 20260505165017 | 61 | 183 | 7.0 | 12.2 | 0.00 | 0.00 | 0.00 | 77 | 1011.5 |
| 20260505164515 | 62 | 164 | 6.1 | 13.0 | 0.00 | 0.00 | 0.00 | 77 | 1011.5 |
| 20260505164014 | 62 | 148 | 5.2 | 13.0 | 0.00 | 0.00 | 0.00 | 78 | 1011.6 |
| 20260505163515 | 62 | 198 | 6.1 | 13.0 | 0.00 | 0.00 | 0.00 | 77 | 1011.7 |
| 20260505163012 | 61 | 136 | 6.1 | 13.0 | 0.00 | 0.00 | 0.00 | 78 | 1011.7 |
| 20260505162511 | 62 | 169 | 6.1 | 15.6 | 0.00 | 0.00 | 0.00 | 77 | 1011.7 |
| 20260505162013 | 62 | 217 | 5.2 | 15.6 | 0.00 | 0.00 | 0.00 | 78 | 1011.7 |
| 20260505161511 | 61 | 160 | 5.2 | 12.2 | 0.00 | 0.00 | 0.00 | 78 | 1011.8 |
| 20260505161011 | 61 | 186 | 6.1 | 13.9 | 0.00 | 0.00 | 0.00 | 79 | 1011.7 |
| 20260505160511 | 61 | 165 | 6.1 | 13.9 | 0.00 | 0.00 | 0.00 | 78 | 1011.8 |
| 20260505153008 | 61 | 153 | 4.3 | 9.6 | 0.00 | 0.00 | 0.00 | 78 | 1012.0 |
| 20260505152505 | 61 | 120 | 4.3 | 11.3 | 0.00 | 0.00 | 0.00 | 78 | 1012.2 |
| 20260505152007 | 60 | 160 | 4.3 | 11.3 | 0.00 | 0.00 | 0.00 | 79 | 1012.2 |
| 20260505151505 | 60 | 134 | 5.2 | 13.0 | 0.00 | 0.00 | 0.00 | 79 | 1012.1 |
| 20260505151004 | 60 | 202 | 4.3 | 13.0 | 0.00 | 0.00 | 0.00 | 79 | 1012.1 |
| 20260505150502 | 60 | 159 | 5.2 | 9.6 | 0.00 | 0.00 | 0.00 | 79 | 1012.1 |
| 20260505140457 | 60 | 163 | 4.3 | 12.2 | 0.00 | 0.00 | 0.00 | 79 | 1011.6 |
| 20260505124945 | 58 | 165 | 4.3 | 10.4 | 0.00 | 0.00 | 0.00 | 83 | 1011.7 |
| 20260505124444 | 57 | 158 | 5.2 | 13.0 | 0.00 | 0.00 | 0.00 | 83 | 1011.6 |
| 20260505123943 | 57 | 172 | 5.2 | 13.0 | 0.00 | 0.00 | 0.00 | 83 | 1011.7 |
| 20260505123444 | 57 | 155 | 5.2 | 11.3 | 0.00 | 0.00 | 0.00 | 83 | 1011.8 |
| 20260505122942 | 57 | 180 | 5.2 | 11.3 | 0.00 | 0.00 | 0.00 | 84 | 1011.8 |
| 20260505122444 | 57 | 183 | 5.2 | 10.4 | 0.00 | 0.00 | 0.00 | 84 | 1011.7 |
| 20260505121943 | 56 | 158 | 5.2 | 13.0 | 0.00 | 0.00 | 0.00 | 84 | 1011.8 |
| 20260505121442 | 56 | 221 | 5.2 | 14.8 | 0.00 | 0.00 | 0.00 | 84 | 1011.8 |
| 20260505120941 | 56 | 145 | 5.2 | 14.8 | 0.00 | 0.00 | 0.00 | 84 | 1011.8 |
| 20260505120439 | 56 | 174 | 5.2 | 12.2 | 0.00 | 0.00 | 0.00 | 84 | 1011.9 |
| 20260505115940 | 56 | 161 | 5.2 | 12.2 | 0.00 | 0.00 | 0.00 | 85 | 1011.9 |
| 20260505115438 | 56 | 156 | 4.3 | 9.6 | 0.00 | 0.00 | 0.00 | 85 | 1011.8 |
| 20260505114938 | 56 | 163 | 4.3 | 8.7 | 0.00 | 0.00 | 0.00 | 85 | 1011.9 |
| 20260505114439 | 56 | 165 | 4.3 | 8.7 | 0.00 | 0.00 | 0.00 | 85 | 1011.8 |
| 20260505113937 | 55 | 180 | 4.3 | 7.8 | 0.00 | 0.00 | 0.00 | 86 | 1011.9 |
| 20260505113434 | 55 | 156 | 4.3 | 9.6 | 0.00 | 0.00 | 0.00 | 86 | 1011.9 |
| 20260505112935 | 55 | 179 | 4.3 | 9.6 | 0.00 | 0.00 | 0.00 | 87 | 1011.9 |
| 20260505112435 | 55 | 163 | 4.3 | 9.6 | 0.00 | 0.00 | 0.00 | 87 | 1011.8 |
| 20260505111937 | 54 | 153 | 4.3 | 8.7 | 0.00 | 0.00 | 0.00 | 88 | 1011.8 |
| 20260505111436 | 54 | 153 | 3.5 | 8.7 | 0.00 | 0.00 | 0.00 | 88 | 1011.8 |
| 20260505110935 | 54 | 182 | 3.5 | 7.8 | 0.00 | 0.00 | 0.00 | 88 | 1011.8 |
| 20260505110435 | 53 | 176 | 4.3 | 7.8 | 0.00 | 0.00 | 0.00 | 89 | 1011.7 |
| 20260505101926 | 53 | 151 | 4.3 | 8.7 | 0.00 | 0.00 | 0.00 | 89 | 1011.6 |
| 20260505101425 | 52 | 202 | 4.3 | 7.8 | 0.00 | 0.00 | 0.00 | 89 | 1011.5 |
| 20260505100926 | 52 | 166 | 4.3 | 8.7 | 0.00 | 0.00 | 0.00 | 89 | 1011.5 |
| 20260505100424 | 52 | 153 | 4.3 | 11.3 | 0.00 | 0.00 | 0.00 | 89 | 1011.5 |
| 20260505095924 | 52 | 138 | 4.3 | 11.3 | 0.00 | 0.00 | 0.00 | 89 | 1011.5 |
| 20260505095425 | 52 | 181 | 3.5 | 8.7 | 0.00 | 0.00 | 0.00 | 89 | 1011.5 |
| 20260505094922 | 52 | 138 | 2.6 | 8.7 | 0.00 | 0.00 | 0.00 | 89 | 1011.5 |
| 20260505094422 | 52 | 155 | 3.5 | 8.7 | 0.00 | 0.00 | 0.00 | 89 | 1011.5 |
| 20260505093922 | 52 | 196 | 3.5 | 7.8 | 0.00 | 0.00 | 0.00 | 89 | 1011.5 |
| 20260505093420 | 52 | 160 | 3.5 | 7.8 | 0.00 | 0.00 | 0.00 | 89 | 1011.4 |
| 20260505092920 | 52 | 155 | 2.6 | 7.0 | 0.00 | 0.00 | 0.00 | 89 | 1011.3 |
| 20260505092419 | 52 | 134 | 2.6 | 7.0 | 0.00 | 0.00 | 0.00 | 89 | 1011.3 |
| 20260505091917 | 52 | 164 | 1.7 | 6.1 | 0.00 | 0.00 | 0.00 | 89 | 1011.4 |
| 20260505091418 | 52 | 155 | 2.6 | 6.1 | 0.00 | 0.00 | 0.00 | 90 | 1011.4 |
| 20260505090917 | 51 | 172 | 1.7 | 5.2 | 0.00 | 0.00 | 0.00 | 90 | 1011.4 |
| 20260505090418 | 51 | 175 | 1.7 | 4.3 | 0.00 | 0.00 | 0.00 | 90 | 1011.3 |
| 20260505085918 | 51 | 152 | 1.7 | 4.3 | 0.00 | 0.00 | 0.00 | 90 | 1011.4 |
| 20260505085416 | 51 | 207 | 1.7 | 5.2 | 0.00 | 0.00 | 0.00 | 90 | 1011.4 |
| 20260505084915 | 51 | 149 | 1.7 | 5.2 | 0.00 | 0.00 | 0.00 | 90 | 1011.4 |
| 20260505084412 | 51 | 156 | 1.7 | 6.1 | 0.00 | 0.00 | 0.00 | 90 | 1011.3 |
| 20260505083912 | 51 | 196 | 1.7 | 6.1 | 0.00 | 0.00 | 0.00 | 91 | 1011.3 |
| 20260505083407 | 51 | 171 | 1.7 | 4.3 | 0.00 | 0.00 | 0.00 | 91 | 1011.4 |
| 20260505082904 | 51 | 163 | 1.7 | 4.3 | 0.00 | 0.00 | 0.00 | 91 | 1011.4 |
| 20260505082347 | 51 | 139 | 1.7 | 4.3 | 0.00 | 0.00 | 0.00 | 91 | 1011.5 |
| 20260505081844 | 51 | 177 | 1.7 | 4.3 | 0.00 | 0.00 | 0.00 | 91 | 1011.5 |
| 20260505081344 | 51 | 153 | 1.7 | 4.3 | 0.00 | 0.00 | 0.00 | 91 | 1011.6 |
| 20260505080842 | 51 | 150 | 1.7 | 6.1 | 0.00 | 0.00 | 0.00 | 91 | 1011.6 |
| 20260505080344 | 51 | 173 | 2.6 | 6.1 | 0.00 | 0.00 | 0.00 | 91 | 1011.7 |
| 20260505075834 | 51 | 160 | 2.6 | 6.1 | 0.00 | 0.00 | 0.00 | 91 | 1011.6 |
| 20260505075334 | 51 | 173 | 1.7 | 6.1 | 0.00 | 0.00 | 0.00 | 91 | 1011.7 |
| 20260505074831 | 51 | 225 | 1.7 | 5.2 | 0.00 | 0.00 | 0.00 | 91 | 1011.7 |
| 20260505074335 | 51 | 161 | 1.7 | 5.2 | 0.00 | 0.00 | 0.00 | 90 | 1011.7 |
| 20260505073821 | 52 | 123 | 1.7 | 4.3 | 0.00 | 0.00 | 0.00 | 90 | 1011.6 |
| 20260505073325 | 52 | 161 | 1.7 | 4.3 | 0.00 | 0.00 | 0.00 | 90 | 1011.7 |
| 20260505072819 | 52 | 194 | 1.7 | 5.2 | 0.00 | 0.00 | 0.00 | 90 | 1011.7 |
| 20260505072318 | 52 | 153 | 2.6 | 6.1 | 0.00 | 0.00 | 0.00 | 90 | 1011.6 |
| 20260505071818 | 52 | 154 | 2.6 | 6.1 | 0.00 | 0.00 | 0.00 | 90 | 1011.7 |
| 20260505071317 | 52 | 169 | 2.6 | 5.2 | 0.00 | 0.00 | 0.00 | 90 | 1011.6 |
| 20260505070815 | 52 | 191 | 2.6 | 6.1 | 0.00 | 0.00 | 0.00 | 89 | 1011.6 |
| 20260505070316 | 52 | 130 | 2.6 | 10.4 | 0.00 | 0.00 | 0.00 | 89 | 1011.6 |
| 20260505065815 | 52 | 171 | 2.6 | 10.4 | 0.00 | 0.00 | 0.00 | 90 | 1011.7 |
| 20260505065315 | 52 | 209 | 2.6 | 7.0 | 0.00 | 0.00 | 0.00 | 90 | 1011.6 |
| 20260505064810 | 52 | 168 | 2.6 | 8.7 | 0.00 | 0.00 | 0.00 | 90 | 1011.5 |
| 20260505064311 | 52 | 203 | 1.7 | 8.7 | 0.00 | 0.00 | 0.00 | 90 | 1011.5 |
| 20260505063804 | 52 | 250 | 1.7 | 7.0 | 0.00 | 0.00 | 0.00 | 90 | 1011.4 |
| 20260505063305 | 52 | 201 | 1.7 | 7.0 | 0.00 | 0.00 | 0.00 | 90 | 1011.4 |
| 20260505062804 | 52 | 194 | 1.7 | 7.0 | 0.00 | 0.00 | 0.00 | 90 | 1011.4 |
| 20260505062304 | 52 | 154 | 2.6 | 7.0 | 0.00 | 0.00 | 0.00 | 90 | 1011.5 |
| 20260505061805 | 52 | 197 | 1.7 | 6.1 | 0.00 | 0.00 | 0.00 | 90 | 1011.5 |
| 20260505061304 | 52 | 167 | 1.7 | 7.0 | 0.00 | 0.00 | 0.00 | 89 | 1011.5 |
| 20260505060804 | 52 | 186 | 1.7 | 7.0 | 0.00 | 0.00 | 0.00 | 89 | 1011.4 |
| 20260505060304 | 52 | 239 | 1.7 | 4.3 | 0.00 | 0.00 | 0.00 | 89 | 1011.5 |
| 20260505055803 | 52 | 225 | 1.7 | 5.2 | 0.00 | 0.00 | 0.00 | 89 | 1011.5 |
| 20260505055303 | 52 | 185 | 2.6 | 6.1 | 0.00 | 0.00 | 0.00 | 89 | 1011.5 |
| 20260505054802 | 52 | 169 | 2.6 | 7.0 | 0.00 | 0.00 | 0.00 | 89 | 1011.6 |
| 20260505054257 | 52 | 156 | 2.6 | 7.0 | 0.00 | 0.00 | 0.00 | 88 | 1011.5 |
| 20260505053759 | 52 | 177 | 2.6 | 6.1 | 0.00 | 0.00 | 0.00 | 88 | 1011.6 |
| 20260505053257 | 52 | 191 | 2.6 | 7.0 | 0.00 | 0.00 | 0.00 | 88 | 1011.6 |
| 20260505052756 | 52 | 148 | 2.6 | 7.0 | 0.00 | 0.00 | 0.00 | 88 | 1011.6 |
| 20260505052256 | 52 | 206 | 2.6 | 7.0 | 0.00 | 0.00 | 0.00 | 88 | 1011.6 |
| 20260505051753 | 52 | 137 | 2.6 | 7.0 | 0.00 | 0.00 | 0.00 | 88 | 1011.6 |
| 20260505051253 | 52 | 180 | 2.6 | 7.0 | 0.00 | 0.00 | 0.00 | 87 | 1011.6 |
| 20260505050753 | 52 | 211 | 1.7 | 7.8 | 0.00 | 0.00 | 0.00 | 87 | 1011.5 |
| 20260505050252 | 52 | 171 | 2.6 | 7.8 | 0.00 | 0.00 | 0.00 | 87 | 1011.6 |